Weather History for KMIW - June, 2013

Change the Weather History Date:

Saturday, June 29, 2013

  Actual Average Record
Temperature  
Mean Temperature 69 °F 72 °F  
Max Temperature 75 °F 83 °F 93 °F (2012)
Min Temperature 62 °F 62 °F 50 °F (1999)
Degree Days  
Heating Degree Days 0 0  
Month to date heating degree days 37 28  
Since 1 June heating degree days 37 28  
Since 1 July heating degree days 7016 7012  
Cooling Degree Days 4 8  
Month to date cooling degree days 159 156  
Year to date cooling degree days 220 206  
Since 1 June cooling degree days 159 156  
Growing Degree Days 18 (Base 50)    
Moisture  
Dew Point 61 °F    
Average Humidity 77    
Maximum Humidity 93    
Minimum Humidity 61    
Precipitation  
Precipitation 0.24 in 0.16 in 0.24 in (2013)
Month to date precipitation 4.88 4.97  
Sea Level Pressure  
Sea Level Pressure 29.78 in    
Wind  
Wind Speed 15 mph (NNW)    
Max Wind Speed 31 mph    
Max Gust Speed 39 mph    
Visibility 10 miles    
Events Rain , Thunderstorm    
T = Trace of Precipitation, MM = Missing Value Source: NWS Daily Summary

Daily Weather History Graph

Daily Weather History Graph

Search for Another Location

Airport or City:

Trip Planner

Search our weather history database for the weather conditions in past years. The results will help you decide how hot, cold, wet, or windy it might be!

Date:

Astronomy

Jun. 29, 2013 Rise Set
Actual Time 5:38 AM CDT 8:51 PM CDT
Civil Twilight 5:04 AM CDT 9:26 PM CDT
Nautical Twilight 4:19 AM CDT 10:10 PM CDT
Astronomical Twilight 3:26 AM CDT 11:03 PM CDT
Moon 12:13 AM CDT (6/29) 12:58 PM CDT (6/29)
Length of Visible Light 16h 21m
Length of Day
15h 12m
Waning Gibbous, 55% of the Moon is Illuminated
Jun 29
Waning Gibbous
Jun 29
Last Quarter
Jul 8
New
Jul 15
First Quarter
Jul 22
Full

Hourly Weather History & Observations

Time (CDT) Temp. Dew Point Humidity Pressure Visibility Wind Dir Wind Speed Gust Speed Precip Events Conditions
12:53 AM 68.0 °F 60.1 °F 76% 29.74 in 10.0 mi NW 6.9 mph - N/A   Mostly Cloudy
1:53 AM 66.0 °F 61.0 °F 84% 29.73 in 10.0 mi NW 11.5 mph - N/A   Clear
2:53 AM 64.0 °F 61.0 °F 90% 29.73 in 10.0 mi NW 6.9 mph - N/A   Clear
3:53 AM 63.0 °F 61.0 °F 93% 29.73 in 10.0 mi NW 6.9 mph - N/A   Clear
4:53 AM 63.0 °F 61.0 °F 93% 29.74 in 10.0 mi WNW 9.2 mph - N/A   Clear
5:17 AM 62.6 °F 62.6 °F 100% 29.76 in 10.0 mi WNW 6.9 mph - N/A   Mostly Cloudy
5:40 AM 62.6 °F 60.8 °F 94% 29.76 in 10.0 mi WNW 6.9 mph - N/A   Scattered Clouds
5:53 AM 62.1 °F 61.0 °F 96% 29.74 in 10.0 mi WNW 8.1 mph - N/A   Partly Cloudy
6:53 AM 63.0 °F 61.0 °F 93% 29.75 in 10.0 mi WNW 10.4 mph - N/A   Partly Cloudy
7:53 AM 68.0 °F 62.1 °F 81% 29.74 in 10.0 mi NW 13.8 mph - N/A   Clear
8:53 AM 70.0 °F 63.0 °F 78% 29.75 in 10.0 mi NW 13.8 mph - N/A   Scattered Clouds
9:53 AM 73.0 °F 62.1 °F 68% 29.73 in 10.0 mi NW 12.7 mph - N/A   Mostly Cloudy
9:59 AM 68.0 °F 62.6 °F 83% 29.76 in 0.8 mi WNW 25.3 mph 39.1 mph 0.19 in Rain Light Rain
10:10 AM 66.2 °F 62.6 °F 88% 29.76 in 3.0 mi NW 19.6 mph 28.8 mph 0.24 in Rain Light Rain
10:15 AM 64.4 °F 62.6 °F 94% 29.76 in 10.0 mi NNW 23.0 mph 29.9 mph 0.24 in Rain , Thunderstorm Light Rain
10:36 AM 64.4 °F 64.4 °F 100% 29.76 in 10.0 mi NNW 15.0 mph 26.5 mph 0.24 in Rain Light Rain
10:53 AM 66.0 °F 64.0 °F 93% 29.75 in 10.0 mi NNW 18.4 mph 23.0 mph 0.24 in   Overcast
11:09 AM 66.2 °F 64.4 °F 94% 29.77 in 10.0 mi NNW 18.4 mph 26.5 mph N/A   Overcast
11:33 AM 69.8 °F 64.4 °F 83% 29.77 in 10.0 mi North 17.3 mph - N/A   Mostly Cloudy
11:53 AM 70.0 °F 63.0 °F 78% 29.76 in 10.0 mi North 18.4 mph 26.5 mph N/A   Mostly Cloudy
12:53 PM 70.0 °F 62.1 °F 76% 29.77 in 10.0 mi North 23.0 mph 31.1 mph N/A   Overcast
1:53 PM 71.1 °F 63.0 °F 75% 29.78 in 10.0 mi North 21.9 mph 31.1 mph 0.00 in   Overcast
2:37 PM 71.6 °F 62.6 °F 73% 29.80 in 10.0 mi North 20.7 mph 31.1 mph N/A   Mostly Cloudy
2:53 PM 71.1 °F 61.0 °F 70% 29.79 in 10.0 mi North 24.2 mph 28.8 mph N/A   Mostly Cloudy
3:00 PM 71.6 °F 62.6 °F 73% 29.80 in 10.0 mi North 18.4 mph 33.4 mph N/A   Mostly Cloudy
3:53 PM 71.1 °F 61.0 °F 70% 29.81 in 10.0 mi North 20.7 mph 27.6 mph 0.00 in   Overcast
4:53 PM 73.0 °F 59.0 °F 61% 29.81 in 10.0 mi North 20.7 mph 29.9 mph N/A   Mostly Cloudy
5:53 PM 70.0 °F 59.0 °F 68% 29.82 in 10.0 mi North 20.7 mph 28.8 mph N/A   Mostly Cloudy
6:53 PM 66.9 °F 57.9 °F 73% 29.84 in 10.0 mi North 20.7 mph 28.8 mph N/A   Partly Cloudy
7:53 PM 66.9 °F 57.0 °F 70% 29.85 in 10.0 mi North 18.4 mph 23.0 mph N/A   Mostly Cloudy
8:53 PM 66.0 °F 57.9 °F 75% 29.86 in 10.0 mi North 12.7 mph - N/A   Overcast
9:53 PM 66.0 °F 57.9 °F 75% 29.88 in 10.0 mi NNE 11.5 mph - N/A   Overcast
10:53 PM 64.0 °F 57.9 °F 80% 29.89 in 10.0 mi North 8.1 mph - N/A   Mostly Cloudy
11:53 PM 62.1 °F 59.0 °F 90% 29.90 in 10.0 mi North 8.1 mph - N/A   Overcast